Md. Asadullah

Silver Star - 4,467 Points (11th july)

Stats

» Click to list general statistics » OR, select a date :

General Statistics

Visitors of the poet

Number of visitors of the poet’s mainpage in PoemHunter.Com

Attention : Numbers in this table does not indicate the total hits of poems of the poet, but indicates the hits of the poet’s main page.

Date Hits
02/21/2018 Wednesday 13
21%
02/20/2018 Tuesday 20
32%
02/19/2018 Monday 19
31%
02/18/2018 Sunday 18
29%
02/17/2018 Saturday 48
78%
02/16/2018 Friday 61
100%
02/15/2018 Thursday 58
95%
02/14/2018 Wednesday 18
29%
02/13/2018 Tuesday 60
98%
02/12/2018 Monday 45
73%
02/11/2018 Sunday 35
57%
02/10/2018 Saturday 34
55%
02/09/2018 Friday 26
42%
02/08/2018 Thursday 55
90%
02/07/2018 Wednesday 31
50%
02/06/2018 Tuesday 19
31%
02/05/2018 Monday 20
32%
02/04/2018 Sunday 23
37%
02/03/2018 Saturday 15
24%
02/02/2018 Friday 57
93%

Reader rating & num.of MyPoemList’s

Click the captions of columns to change the order.

# Poem Title Submit Date Reader Rating Num.of MyPoemList’s
Rating Num.R.
1 I Want To Be Alone 01/01/2014 10.0 1 1
2 Sounds And A Silence 09/28/2014 10.0 2 1
3 Delhi Zoo Tragedy 09/28/2014 10.0 2 0
4 Religions And Definitions Of God 09/28/2014 10.0 2 0
5 Quran And Microbes 09/29/2014 9.7 3 0
6 Nostalgia Ii 10/12/2014 10.0 2 0
7 Easiest Way To Kill An Enemy 10/15/2014 10.0 3 0
8 Love Perfect One 10/18/2014 10.0 2 0
9 Love For Allah 10/18/2014 10.0 1 0
10 Eyes 10/18/2014 10.0 2 0
11 Honest Opinions 10/19/2014 10.0 2 0
12 Words And Actions 10/19/2014 10.0 2 0
13 Son Of Adam 10/19/2014 10.0 4 0
14 Storm 10/23/2014 10.0 3 0
15 Diwali And Poor Child 10/23/2014 10.0 2 0
16 Yesterday On Bus 10/25/2014 10.0 4 0
17 Distorted Image 10/26/2014 10.0 2 0
18 Evil Eye 10/27/2014 7.5 2 0
19 Perceptions 10/27/2014 10.0 2 0
20 Playful Moon 11/30/2014 10.0 2 0
21 Widow 12/07/2014 10.0 2 0
22 Favour Of God 12/14/2014 10.0 3 0
23 Strings Of Hope 12/14/2014 10.0 4 0
24 Friend And Foe 01/01/2015 10.0 1 0
25 Paths Of Success 01/04/2015 10.0 1 0
26 Charlie Hebdo 01/18/2015 10.0 1 0
27 I Am Not Charlie 01/18/2015 10.0 1 0
28 Bud 07/12/2015 10.0 1 0
29 Wisdom 08/09/2015 10.0 1 0
30 Words 08/16/2015 10.0 1 0
31 Breathe In Breathe Out 12/05/2015 10.0 1 0
32 Test Of 'goodness' 12/05/2015 10.0 1 0
33 - Quran 82. Surah Al-Infitaar (The Cleaving) - 12/25/2015 10.0 1 0
34 Id, Ego And Superego 12/27/2015 8.5 2 0
35 Free Flowing Stream 01/02/2016 10.0 1 0
36 Corporate 01/02/2016 10.0 1 0
37 Success/Failure 01/23/2016 10.0 1 0
38 Like Dust 01/23/2016 10.0 1 0
39 Graveyard 01/26/2016 10.0 1 0
40 Silence 07/06/2016 10.0 1 0
41 Beauty 07/09/2016 10.0 1 0
42 A Truth.... 07/16/2016 8.5 2 0
43 Urdu - Reply To Ghalib And Faraz 02/19/2017 10.0 1 0
44 Urdu-Nadamat Ke Aa'nsoo 07/16/2017 10.0 1 0
45 No More 09/25/2017 -- 0 0
46 Blues 10/29/2017 -- 0 0
47 No Matter... 11/04/2017 -- 0 0
48 What Has Happened To Me? 11/05/2017 -- 0 0
49 A Prayer I 12/21/2017 -- 0 0
50 Terrorism Condemned 01/01/2014 9.5 2 0
51 Night Shift 01/01/2014 10.0 1 0
52 Answering Atheism I 01/01/2014 10.0 1 0
53 Urdu - Dosti 01/01/2014 10.0 1 0
54 Urdu - 01/01/2014 10.0 1 0
55 Urdu - In Praise Of Prophet(Pbuh) 01/01/2014 10.0 1 0
56 Secret Sins 01/01/2014 10.0 1 0
57 Injustice And Patience 01/01/2014 10.0 1 0
58 Voice Against Terrorism. 01/01/2014 10.0 1 0
59 Accept Me Or Reject Me 01/01/2014 10.0 1 0
60 If......., Then 01/01/2014 10.0 2 0
61 Friend Found 01/01/2014 10.0 1 0
62 Secret Revealed 01/01/2014 10.0 1 0
63 Extra Initiative 01/01/2014 10.0 1 0
64 Islam The Touchstone 01/01/2014 10.0 1 0
65 Man Or Machine 01/01/2014 10.0 1 0
66 Lmdians 01/01/2014 10.0 1 0
67 Where Are You My Love, Where Are You? 01/01/2014 10.0 1 0
68 *reflection 01/01/2014 10.0 1 0
69 Suicide 01/01/2014 10.0 1 0
70 Cigarette Personified 01/01/2014 10.0 1 0
71 Islam 01/01/2014 10.0 1 0
72 Blessed Birth Of Prophet(Pbuh) 01/01/2014 10.0 1 0
73 Going Into Depression 01/01/2014 10.0 1 0
74 Silence Speaks 01/01/2014 10.0 1 0
75 Nostalgia 01/01/2014 10.0 1 0
76 Dance Of A Fakir 01/01/2014 10.0 1 0
77 I Am Man 01/01/2014 10.0 1 0
78 My Imagination 01/01/2014 10.0 1 0
79 Death 01/01/2014 10.0 1 0
80 Fantasy 01/01/2014 10.0 1 0
81 Jealousy 01/01/2014 10.0 1 0
82 Lie 01/01/2014 10.0 1 0
83 Rugby 01/01/2014 10.0 1 0
84 Salaat 01/01/2014 10.0 1 0
85 Temptation 01/01/2014 -- 0 0
86 Revolution 01/01/2014 10.0 1 0
87 In Search Of Fear 01/01/2014 10.0 1 0
88 Aimless I 01/01/2014 9.0 2 0
89 Bomb Blast 01/01/2014 10.0 1 0
90 Or Is That Me Who Is Sad? 01/01/2014 10.0 1 0
91 Unwritten Soul 01/01/2014 10.0 2 0
92 Have You Ever Seen It Brush? 01/01/2014 10.0 1 0
93 Revealed - My Patriotism 01/01/2014 10.0 1 0
94 Ant 01/01/2014 10.0 1 0
95 Through Windows Of Time 01/01/2014 10.0 1 0
96 A Muslim's Prayer 01/01/2014 10.0 2 0
97 A Meeting With Beloved Bapu(Gandhi) 01/01/2014 10.0 1 0
98 Aimless Iii 01/01/2014 10.0 1 0
99 Poem 01/01/2014 10.0 1 0
100 Way To My Destination 01/01/2014 10.0 1 0
101 Satan's Three Knots 01/01/2014 10.0 1 0
102 Sun And Doomsday 01/01/2014 10.0 1 0
103 Yesterday My Childhood Came 01/01/2014 10.0 1 0
104 What Is Life? 01/01/2014 10.0 1 0
105 All Praise Is Due To Allah 01/01/2014 10.0 2 0
106 Am I Still Alive? 01/01/2014 10.0 1 0
107 Love 01/01/2014 10.0 1 0
108 I Stand 'Tween Right And Wrong. 01/01/2014 10.0 1 0
109 Yes, I Confess... 01/01/2014 10.0 1 0
110 Answering Atheism Ii 01/01/2014 10.0 1 0
111 Blessed Birth Of Jesus(Pbuh) - [islamic Perspective] 01/01/2014 10.0 1 0
112 Elections 2014(Ii) 01/01/2014 10.0 1 0
113 Waliullah - Friend Of Allah(Swt) 01/01/2014 10.0 1 0
114 Aimless Ii 01/01/2014 10.0 1 0
115 My Enemy Let Us Compete 01/01/2014 10.0 1 0
116 Why I'Ve Reached My Destination So Late 01/01/2014 10.0 1 0
117 Inside Job! - 9/11 01/01/2014 10.0 1 0
118 Little By Little I See My Henna Plant Grow 01/01/2014 10.0 1 0
119 Destiny Is Like Shadow 01/01/2014 10.0 1 0
120 Elections 2014(I) 01/01/2014 10.0 1 0
121 Environment Friendly Poem 01/01/2014 10.0 1 0
122 I Doubt! 01/04/2014 10.0 2 0
123 Message On 12 Rabi Ul Awal 01/14/2014 10.0 1 0
124 Dead Leaves 01/18/2014 10.0 1 0
125 Broken Wings And Dead Smiles 01/19/2014 10.0 1 0
126 Truth's Naked Dance 01/26/2014 10.0 1 0
127 Death Will Be Put To Death! 02/02/2014 10.0 1 0
128 Spoken Words 02/02/2014 10.0 1 0
129 Soldier And Author 02/02/2014 10.0 1 0
130 Kill..... 02/08/2014 10.0 1 0
131 Elections 2014(Iii) 02/08/2014 10.0 1 0
132 Standing Amongst Stones... 02/15/2014 10.0 1 0
133 Homo Sapiens 02/15/2014 10.0 1 0
134 My Real Tongue 02/15/2014 10.0 1 0
135 Let's Show The Shiny Part 02/16/2014 10.0 1 0
136 Aimless Iv 02/16/2014 10.0 1 0
137 Two Breaths Of Hellfire 02/16/2014 10.0 3 0
138 Protest Against Double Standards 02/23/2014 10.0 1 0
139 Mercy 02/23/2014 10.0 1 0
140 Honest/Dishonest 03/01/2014 10.0 1 0
141 Burn All These 'Old Age Homes' 03/01/2014 10.0 1 0
142 Never Despise Any Old Book 03/03/2014 10.0 2 0
143 - -Quran 75. The Rising Of The Dead, Resurrection- - 03/05/2014 10.0 1 0
144 Urdu 1 03/02/2014 10.0 1 0
145 God's Mercy Prevails Over His Wrath. 03/01/2014 10.0 1 0
146 I Wished For Thousand Springs 03/01/2014 10.0 1 0
147 Buttering And Oiling 03/01/2014 10.0 1 0
148 Is It Something In Me..... 03/01/2014 10.0 1 0
149 English Translation Of My Urdu 1 Poem 03/14/2014 10.0 1 0
150 Freedom's Journey 03/17/2014 10.0 1 0
151 Declaration 03/17/2014 10.0 1 0
152 Let Me Give You This Shock(Global Warming) 03/15/2014 10.0 1 0
153 My Thoughts On Your Thoughts 03/15/2014 10.0 1 0
154 O East! 03/19/2014 10.0 1 0
155 Holi-Day And Holiday 03/19/2014 10.0 1 0
156 Character Certificates 03/19/2014 10.0 1 0
157 Sun, Moon And My Imagination 03/19/2014 10.0 2 0
158 O Tree Of Art! 03/19/2014 10.0 1 0
159 Effective Decision Making 03/14/2014 10.0 1 0
160 Wise Men! - A Piece Of Advice 03/21/2014 10.0 1 0
161 Pack Of Wolves And An Ass 03/14/2014 5.5 2 0
162 I Know How They Tame Wild Elephants 03/24/2014 10.0 1 0
163 Gandhiji's Statue 03/24/2014 10.0 1 0
164 Equal Doesn'T Mean Identical 03/29/2014 7.5 2 0
165 They All.. 03/31/2014 10.0 1 0
166 Agree Or Disagree 03/29/2014 10.0 2 0
167 Different Perspective 03/29/2014 10.0 1 0
168 Only One 04/02/2014 10.0 2 0
169 Color Unseen 04/02/2014 10.0 2 0
170 East, West, Best 04/02/2014 10.0 3 0
171 Talk/Walk 04/02/2014 10.0 1 0
172 Wall Of Ego 04/06/2014 10.0 2 0
173 It Could Be Within Us 04/06/2014 10.0 2 0
174 I Just Don'T Care 04/06/2014 10.0 1 0
175 Don'T Take Name Of Martyrs 04/20/2014 10.0 2 0
176 Destination 04/26/2014 10.0 2 0
177 Darwin's Theory(Science Or Fairy-Tale) 05/05/2014 8.5 4 0
178 Except One 05/11/2014 7.5 2 0
179 Today 05/11/2014 8.3 3 0
180 Helpless Finger! 06/22/2014 10.0 2 0
181 Ignorant Sufi Is Tool Of The Satan 07/20/2014 10.0 2 0
182 Gaza And The Warning 07/20/2014 10.0 1 0
183 Me, The Loner 07/20/2014 10.0 1 0
184 I Am Gaza, 'Mother Of All Prisons' 07/20/2014 9.3 3 0
185 Steel And Paper 08/03/2014 10.0 2 0
186 Tangible Beliefs 08/10/2014 10.0 2 0
187 Urdu- Ummat-E-Muslimah Ka Haal 08/10/2014 10.0 2 0
188 Foolish Act 08/10/2014 10.0 1 0
189 Wealthiest Of Them All 08/10/2014 10.0 1 0
190 Dealing With Cobra 08/15/2014 10.0 1 0
191 A Prayer 08/15/2014 10.0 1 0
192 Inadequacies Found 08/16/2014 10.0 1 0
193 Me, Me And Me Is What Makes We 08/16/2014 9.5 2 0
194 Inner Peace? 08/17/2014 9.3 3 0
195 She Feared.. 08/30/2014 9.5 2 0
196 Terror 08/30/2014 10.0 2 0
197 Ancient Mythologies And Verses Holy 08/30/2014 10.0 3 0
198 Mr Nice 09/01/2014 10.0 1 0
199 Failures My Friend 09/01/2014 10.0 1 0
200 Strife 09/02/2014 10.0 1 0
201 Misunderstanding 09/03/2014 10.0 1 0
202 Options 09/04/2014 10.0 1 0
203 Hidden Words 09/07/2014 10.0 1 0
204 Set Me Free 09/07/2014 10.0 1 0
205 Pain 09/07/2014 10.0 1 0
206 Pleasure In Pain 09/07/2014 10.0 1 0
207 Give Some Time 09/07/2014 10.0 1 0
208 Prying Eyes 09/07/2014 10.0 2 0
209 Hunting 09/07/2014 10.0 1 0
210 Trick 09/07/2014 10.0 1 0
211 Mad With Anger 09/07/2014 10.0 1 0
212 Drum Of Freedom 09/08/2014 10.0 4 0
213 Who Are They? Who Are They? [isis] 09/08/2014 10.0 1 0
214 In Tiny Heart.. 09/19/2014 10.0 3 0
215 Wake Up! 09/21/2014 10.0 4 0
216 Judgements 09/28/2014 10.0 3 0
[Report Error]